Location: ???????
(55.9142°N, 37.8256°E)
Time: 04:33:44
(UTC+00:00)

Cosmos 1766 - Pass Details

Date: 14 April 2024
Orbit: 487 x 504 km, 82.5° (Epoch: 23 May)

Event Time Altitude Azimuth Distance (km) Brightness Sun altitude
Rises 01:19:04 0° 349° (N) 2,588 7.1 -9.2°
Reaches altitude 10° 01:21:12 10° 352° (N) 1,698 6.1 -8.9°
Maximum altitude 01:24:54 68° 76° (ENE) 533 3.5 -8.5°
Drops below altitude 10° 01:28:34 10° 160° (SSE) 1,676 5.7 -8.1°
Sets 01:30:40 0° 163° (SSE) 2,552 6.6 -7.8°
